Time,TemperatureF,DewpointF,PressureIn,WindDirection,WindDirectionDegrees,WindSpeedMPH,WindSpeedGustMPH,Humidity,HourlyPrecipIn,Conditions,Clouds,dailyrainin,SoftwareType,DateUTC
2013-01-15 00:00:00,36.0,-99.9,-100.00,North,-999,-999.0,-999.0,-999,0.00,,,0.07,,2013-01-15 05:00:00,
2013-01-15 00:53:00,36.0,-99.9,-100.00,North,-999,-999.0,-999.0,-999,0.00,,,0.07,,2013-01-15 05:53:00,
2013-01-15 01:00:00,36.0,-99.9,-100.00,North,-999,-999.0,-999.0,-999,0.00,,,0.06,,2013-01-15 06:00:00,
2013-01-15 01:53:00,36.0,-99.9,-100.00,North,-999,-999.0,-999.0,-999,0.00,,,0.06,,2013-01-15 06:53:00,
2013-01-15 02:00:00,36.0,-99.9,-100.00,North,-999,-999.0,-999.0,-999,0.00,,,0.05,,2013-01-15 07:00:00,
2013-01-15 03:00:00,35.0,-99.9,-100.00,North,-999,-999.0,-999.0,-999,0.00,,,0.02,,2013-01-15 08:00:00,
2013-01-15 03:53:00,35.0,-99.9,-100.00,North,-999,-999.0,-999.0,-999,0.00,,,0.02,,2013-01-15 08:53:00,
2013-01-15 04:00:00,35.0,-99.9,-100.00,North,-999,-999.0,-999.0,-999,0.00,,,0.02,,2013-01-15 09:00:00,
2013-01-15 04:53:00,35.0,-99.9,-100.00,North,-999,-999.0,-999.0,-999,0.00,,,0.02,,2013-01-15 09:53:00,
2013-01-15 05:00:00,34.0,-99.9,-100.00,North,-999,-999.0,-999.0,-999,0.00,,,0.01,,2013-01-15 10:00:00,
2013-01-15 06:00:00,33.0,-99.9,-100.00,North,-999,-999.0,-999.0,-999,0.00,,,0.00,,2013-01-15 11:00:00,
2013-01-15 06:53:00,33.0,-99.9,-100.00,North,-999,-999.0,-999.0,-999,0.00,,,0.00,,2013-01-15 11:53:00,
2013-01-15 07:00:00,33.0,-99.9,-100.00,North,-999,-999.0,-999.0,-999,0.00,,,0.00,,2013-01-15 12:00:00,
2013-01-15 07:53:00,33.0,-99.9,-100.00,North,-999,-999.0,-999.0,-999,0.00,,,0.00,,2013-01-15 12:53:00,
2013-01-15 08:00:00,32.0,-99.9,-100.00,North,-999,-999.0,-999.0,-999,0.00,,,0.00,,2013-01-15 13:00:00,
2013-01-15 08:54:00,32.0,-99.9,-100.00,North,-999,-999.0,-999.0,-999,0.00,,,0.00,,2013-01-15 13:54:00,
2013-01-15 09:00:00,33.0,-99.9,-100.00,North,-999,-999.0,-999.0,-999,0.00,,,0.00,,2013-01-15 14:00:00,
2013-01-15 09:54:00,33.0,-99.9,-100.00,North,-999,-999.0,-999.0,-999,0.00,,,0.00,,2013-01-15 14:54:00,
2013-01-15 11:00:00,34.0,-99.9,-100.00,North,-999,-999.0,-999.0,-999,0.00,,,0.00,,2013-01-15 16:00:00,
2013-01-15 11:54:00,34.0,-99.9,-100.00,North,-999,-999.0,-999.0,-999,0.00,,,0.00,,2013-01-15 16:54:00,
2013-01-15 12:00:00,35.0,-99.9,-100.00,North,-999,-999.0,-999.0,-999,0.00,,,0.00,,2013-01-15 17:00:00,
2013-01-15 12:53:00,35.0,-99.9,-100.00,North,-999,-999.0,-999.0,-999,0.00,,,0.00,,2013-01-15 17:53:00,
2013-01-15 13:00:00,35.0,-99.9,-100.00,North,-999,-999.0,-999.0,-999,0.00,,,0.00,,2013-01-15 18:00:00,
2013-01-15 13:54:00,35.0,-99.9,-100.00,North,-999,-999.0,-999.0,-999,0.00,,,0.00,,2013-01-15 18:54:00,
2013-01-15 14:00:00,35.0,-99.9,-100.00,North,-999,-999.0,-999.0,-999,0.00,,,0.00,,2013-01-15 19:00:00,
2013-01-15 14:53:00,35.0,-99.9,-100.00,North,-999,-999.0,-999.0,-999,0.00,,,0.00,,2013-01-15 19:53:00,
2013-01-15 15:00:00,36.0,-99.9,-100.00,North,-999,-999.0,-999.0,-999,0.00,,,0.00,,2013-01-15 20:00:00,
2013-01-15 15:53:00,36.0,-99.9,-100.00,North,-999,-999.0,-999.0,-999,0.00,,,0.00,,2013-01-15 20:53:00,
2013-01-15 16:00:00,36.0,-99.9,-100.00,North,-999,-999.0,-999.0,-999,0.00,,,0.00,,2013-01-15 21:00:00,
2013-01-15 16:53:00,36.0,-99.9,-100.00,North,-999,-999.0,-999.0,-999,0.00,,,0.00,,2013-01-15 21:53:00,
2013-01-15 17:00:00,36.0,-99.9,-100.00,North,-999,-999.0,-999.0,-999,0.00,,,0.00,,2013-01-15 22:00:00,
2013-01-15 17:53:00,36.0,-99.9,-100.00,North,-999,-999.0,-999.0,-999,0.00,,,0.00,,2013-01-15 22:53:00,
2013-01-15 18:00:00,36.0,-99.9,-100.00,North,-999,-999.0,-999.0,-999,0.00,,,0.00,,2013-01-15 23:00:00,
2013-01-15 18:54:00,36.0,-99.9,-100.00,North,-999,-999.0,-999.0,-999,0.00,,,0.00,,2013-01-15 23:54:00,
2013-01-15 19:00:00,34.0,-99.9,-100.00,North,-999,-999.0,-999.0,-999,0.02,,,0.02,,2013-01-16 00:00:00,
2013-01-15 19:53:00,34.0,-99.9,-100.00,North,-999,-999.0,-999.0,-999,0.02,,,0.02,,2013-01-16 00:53:00,
2013-01-15 20:00:00,33.0,-99.9,-100.00,North,-999,-999.0,-999.0,-999,0.06,,,0.08,,2013-01-16 01:00:00,
2013-01-15 20:53:00,33.0,-99.9,-100.00,North,-999,-999.0,-999.0,-999,0.06,,,0.08,,2013-01-16 01:53:00,
2013-01-15 21:00:00,33.0,-99.9,-100.00,North,-999,-999.0,-999.0,-999,0.07,,,0.15,,2013-01-16 02:00:00,
2013-01-15 21:54:00,33.0,-99.9,-100.00,North,-999,-999.0,-999.0,-999,0.07,,,0.15,,2013-01-16 02:54:00,
2013-01-15 22:00:00,33.0,-99.9,-100.00,North,-999,-999.0,-999.0,-999,0.08,,,0.23,,2013-01-16 03:00:00,
2013-01-15 22:53:00,33.0,-99.9,-100.00,North,-999,-999.0,-999.0,-999,0.08,,,0.23,,2013-01-16 03:53:00,
2013-01-15 23:00:00,34.0,-99.9,-100.00,North,-999,-999.0,-999.0,-999,0.05,,,0.28,,2013-01-16 04:00:00,
2013-01-15 23:53:00,34.0,-99.9,-100.00,North,-999,-999.0,-999.0,-999,0.05,,,0.28,,2013-01-16 04:53:00,